Temp_Advection
nan nan nan nan nan nan nan nan nan nan nan nan nan nan nan nan nan nan nan nan nan nan nan nan nan nan nan nan nan nan nan nan nan nan nan nan nan nan nan nan nan nan nan nan
nan -1 -1 -0 -0 -0 0 -0 -1 -1 -0 0 -0 -1 -1 -1 -1 0 0 -0 -2 -1 -0 2 1 0 3 1 -1 -0 -0 -0 0 0 -0 -0 -0 -0 0 0 0 1 1 nan
nan -1 -1 -0 0 -0 0 -1 -0 -1 -1 0 0 -1 -1 -1 -1 -1 -0 0 -0 0 1 2 1 1 2 -0 -0 1 -0 0 0 0 0 0 0 0 0 0 0 0 1 nan
nan -0 -0 0 0 0 -0 -1 -0 0 0 0 -0 -0 -1 -0 -1 -0 1 1 1 1 2 2 1 0 1 -1 1 1 -0 0 0 0 0 0 0 0 -0 -0 -0 -0 0 nan
nan -1 -1 -0 -1 -0 -0 0 0 -0 0 0 0 -0 -1 -0 -0 -1 0 -1 -1 1 1 -1 -2 -1 -1 -0 2 0 1 0 0 0 0 0 0 0 0 0 0 0 -0 nan
nan -2 -1 -1 -0 0 0 -0 -0 -0 0 -0 -0 0 -0 -1 -1 -1 -0 -2 0 1 -1 -2 -1 0 1 2 1 -1 1 0 0 0 0 1 0 0 0 0 0 -0 -0 nan
nan -1 -1 -0 1 0 0 0 0 -0 0 -1 -0 0 -1 -1 -0 -1 -1 -0 0 0 0 -0 -1 -0 -1 1 -0 -1 0 0 0 0 0 0 0 0 -0 -0 -0 -1 -0 nan
nan -1 -1 0 0 0 0 0 -0 0 -0 -1 0 -0 -1 -1 -1 -1 -1 0 1 -2 0 -1 -1 1 1 -2 0 -0 -1 0 0 0 0 0 0 0 0 -0 -0 -0 -0 nan
nan -0 -1 -0 0 -0 -0 -0 -0 -0 -0 0 -0 -0 -1 -0 -1 -2 -4 -0 1 -1 -2 -1 4 1 2 -0 1 -0 0 0 0 0 0 1 0 0 -0 -0 -0 1 1 nan
nan -1 -0 -0 -0 -0 -0 -0 0 -0 0 -0 -0 -0 -0 -2 -2 -1 -2 -2 0 0 -1 1 2 -2 -0 0 -1 -0 1 1 1 0 0 0 -0 -0 -0 -0 0 0 -0 nan
nan -0 -1 -0 -0 0 0 -0 0 -0 0 0 0 0 -0 -0 -0 -0 -1 -3 -1 -1 0 -0 -0 2 -0 1 0 -0 1 1 0 0 0 0 0 -0 0 0 0 0 -0 nan
nan -0 -0 -1 -1 0 -0 -0 -1 -0 -0 0 0 -0 -0 -0 -0 -0 -0 -2 -2 -1 1 2 1 2 1 1 2 0 1 1 0 1 0 1 1 0 0 0 0 -0 0 nan
nan -0 -0 0 -0 -0 -0 -0 -0 -0 0 -0 -0 -0 -1 -1 -1 -1 -2 -2 -0 3 2 3 1 0 0 1 -0 1 1 -0 0 0 1 1 0 -0 0 0 -0 0 0 nan
nan 0 -0 -0 -0 0 -0 -1 -1 0 -0 -0 -0 -0 -1 -1 -1 -1 -3 -1 0 0 1 1 0 1 0 0 -0 -0 0 -1 0 -0 1 0 -0 -0 0 0 0 0 0 nan
nan -0 -0 -0 -0 -0 -0 -0 -1 -1 -1 -1 -1 -0 -1 -1 -1 -1 -2 -2 -2 -1 0 0 1 1 1 0 1 0 1 0 0 -0 0 0 -0 0 0 0 0 1 0 nan
nan -0 0 1 0 -1 -1 -1 -1 -1 -2 -1 -0 -0 -1 -0 -1 -1 -1 -1 -2 -2 -1 0 0 -0 -0 0 1 1 -0 0 -0 -0 0 -0 0 1 0 0 1 0 0 nan
nan -0 -0 0 -1 -0 -2 -1 -1 -0 -0 -1 -0 -1 -1 -0 -0 -1 -1 -1 -1 -2 -1 1 1 -0 -0 0 -1 1 0 -0 -1 -0 -0 -0 0 1 1 0 0 0 0 nan
nan -0 -0 -0 -0 -1 -0 0 -0 -0 -0 -0 -1 -1 -0 -1 -0 -0 -1 -1 -1 -1 1 1 0 1 -0 0 1 1 -0 -0 0 1 0 0 1 1 0 0 0 0 0 nan
nan 0 -0 -0 -0 0 -0 -0 -0 -0 0 -0 -0 -0 -0 -0 -0 -1 -1 -1 0 0 0 -0 -0 0 0 -0 1 -0 0 1 1 0 -1 -0 2 -0 -1 0 0 0 0 nan
nan -1 -0 -0 -0 -0 -0 -0 1 -0 -0 -0 -0 -0 -0 -0 -1 -0 -0 0 1 1 0 0 1 0 0 -0 0 0 0 0 0 -1 -1 1 2 -2 1 1 1 0 1 nan
nan -0 -0 -0 -0 -0 -0 -1 -0 -1 0 0 -0 -0 -0 -1 -1 -1 -0 -0 -0 0 1 1 1 1 0 1 1 0 0 0 1 0 1 2 -0 1 2 1 0 1 1 nan
nan -0 -0 -0 0 -0 -0 -0 -1 -0 -0 0 0 0 0 -1 -0 -0 -0 -1 0 1 1 0 1 1 1 0 0 1 0 0 0 0 0 0 -0 1 0 1 1 1 1 nan
nan 0 0 0 -0 0 0 -0 -0 0 0 1 0 0 -0 -0 0 -0 -1 -0 -0 0 -0 0 1 3 1 -1 -1 -0 1 0 0 0 0 -0 1 1 0 1 1 0 0 nan
nan 0 -0 0 0 0 0 0 1 1 1 0 0 -0 -0 0 -0 -0 -0 0 0 -0 0 1 1 0 1 1 0 0 0 -0 0 0 0 1 1 -0 0 1 0 0 0 nan
nan -0 -0 -0 0 0 0 1 1 0 0 -0 -0 -0 -0 -0 -0 0 -0 -0 0 1 2 1 0 1 2 1 0 0 -0 0 0 0 0 1 1 1 1 0 0 1 0 nan
nan nan nan nan nan nan nan nan nan nan nan nan nan nan nan nan nan nan nan nan nan nan nan nan nan nan nan nan nan nan nan nan nan nan nan nan nan nan nan nan nan nan nan nan
Wind_Speed
13 7 12 11 9 11 12 13 13 3 7 6 11 16 19 17 23 20 20 26 38 43 48 45 38 42 45 25 47 48 46 41 39 38 40 40 39 35 30 25 21 23 23 21
3 22 10 10 14 15 16 18 23 19 14 9 12 17 16 12 20 22 25 30 36 41 44 45 41 29 41 46 54 52 51 44 43 43 40 40 38 33 28 24 20 22 25 24
7 13 14 20 18 17 20 20 17 18 16 16 9 15 12 10 18 30 28 36 45 48 42 43 38 36 38 56 61 57 57 50 47 45 41 38 35 32 29 26 23 27 26 26
11 4 12 19 19 20 20 18 19 17 14 11 7 12 13 6 13 15 20 31 42 43 45 49 42 41 43 53 66 60 60 56 51 45 44 43 40 39 36 30 26 28 30 29
15 16 16 15 18 11 20 6 7 13 16 8 13 5 10 5 10 14 13 34 42 47 45 42 49 47 45 45 47 48 59 58 51 47 46 45 43 42 35 29 26 28 32 30
16 22 19 16 16 14 8 7 13 12 11 14 18 8 6 10 12 14 11 27 45 36 46 48 47 42 42 42 46 45 55 56 53 49 47 45 42 41 36 32 29 30 33 34
24 8 19 18 11 8 3 2 3 7 11 11 14 5 9 11 9 15 15 21 42 45 49 48 45 45 41 46 60 60 57 59 53 51 48 44 41 39 36 35 32 33 36 38
8 10 7 7 13 9 17 11 5 8 4 12 8 5 8 14 18 25 27 29 42 44 52 52 52 52 43 48 47 60 64 57 54 52 46 43 38 37 33 32 31 32 35 35
7 8 14 3 4 10 6 8 11 4 3 3 4 5 17 11 12 15 23 26 32 46 51 57 54 49 52 33 48 52 60 58 58 53 46 43 39 36 31 30 29 31 33 33
4 9 5 5 4 13 7 5 7 4 4 4 2 3 2 16 18 18 18 14 28 44 51 52 50 53 45 31 43 51 64 62 58 52 47 44 39 36 31 29 30 31 33 33
1 3 7 8 4 1 3 5 4 3 3 4 2 2 9 13 13 21 19 21 18 40 41 47 48 48 49 45 45 36 51 59 57 52 48 45 42 37 32 29 29 32 33 33
4 4 5 5 10 5 2 4 10 3 4 2 4 1 10 11 13 21 28 29 23 44 49 50 48 48 50 47 44 43 36 56 60 56 50 47 44 37 33 30 30 32 32 32
4 3 6 3 0 6 5 1 3 5 2 3 3 4 16 16 20 30 34 29 19 43 36 37 40 45 48 50 48 44 39 43 60 57 52 47 43 39 35 33 31 33 32 30
3 3 2 4 8 3 14 21 15 4 3 3 4 9 16 18 20 25 36 36 15 4 24 42 42 44 51 45 45 39 41 53 58 58 53 47 43 40 37 34 33 33 30 29
2 3 4 6 10 35 24 24 27 22 18 7 10 8 14 16 18 21 30 35 33 24 7 10 24 41 45 44 41 27 44 51 57 57 52 48 44 40 38 36 36 33 29 29
3 2 1 18 10 29 26 30 24 26 23 9 10 6 19 16 22 28 31 32 32 31 24 2 4 17 33 45 35 31 43 48 55 50 49 49 45 44 41 39 38 33 31 30
3 3 4 4 11 7 15 22 13 15 13 9 9 13 15 6 12 26 29 29 32 32 26 14 14 10 15 25 38 37 41 46 51 47 48 47 45 47 43 41 38 35 33 32
4 5 1 2 4 9 6 16 11 8 20 18 15 18 18 14 6 27 34 34 29 29 27 18 11 12 22 25 28 31 42 38 32 42 45 46 45 46 45 42 40 37 35 34
7 2 5 4 8 4 13 17 9 6 15 21 16 17 23 26 6 27 41 33 31 28 24 20 12 9 5 24 29 34 32 46 47 50 51 47 47 45 42 42 41 40 38 37
17 18 5 4 7 8 10 20 35 2 10 25 26 22 20 22 14 10 36 34 31 28 26 23 14 1 2 13 21 33 38 34 48 50 49 42 44 41 39 43 43 41 38 37
7 6 15 10 6 4 18 32 14 10 5 29 29 27 30 17 18 25 32 39 36 33 29 25 23 18 7 12 22 32 35 37 37 46 49 43 42 42 38 39 39 40 38 36
9 4 5 5 5 6 28 13 9 8 17 23 28 29 25 31 34 36 38 39 43 43 39 33 30 28 20 9 11 15 22 25 31 38 38 42 34 36 37 38 40 37 37 37
6 8 6 6 4 3 16 19 22 23 21 24 27 30 28 30 40 40 40 40 43 43 42 42 38 35 12 19 17 13 9 19 27 31 33 38 43 33 38 36 34 35 35 36
10 18 4 1 7 13 21 18 23 25 28 29 29 32 32 29 27 34 41 43 43 45 45 43 41 43 40 33 27 30 8 4 12 25 33 39 47 36 35 36 35 34 36 37
6 7 4 13 15 11 21 20 20 25 29 35 34 33 33 34 34 33 32 36 43 41 44 45 42 42 41 33 26 23 19 21 11 8 28 42 40 37 39 36 34 35 28 30
7 1 3 2 7 6 16 19 23 27 28 30 33 36 39 37 34 35 40 39 45 46 43 45 45 43 39 33 30 24 21 22 18 15 14 6 27 34 34 31 30 29 22 22
Wind_Direction
243 249 225 206 207 227 256 269 265 306 247 245 257 268 267 266 265 250 223 203 199 197 202 196 190 192 231 237 192 189 181 184 181 184 177 176 177 181 184 187 187 194 184 178
278 245 242 211 206 223 236 247 258 275 268 243 264 263 266 254 259 248 206 192 201 202 203 205 202 212 240 244 199 194 185 184 184 180 183 182 180 181 187 188 199 206 197 185
262 280 280 227 229 230 232 237 252 254 267 267 266 271 264 273 259 258 229 218 209 206 199 191 195 193 222 222 203 196 185 186 186 186 186 186 183 181 183 189 193 194 197 193
268 281 289 238 226 227 245 240 253 259 247 253 167 269 263 249 258 250 211 198 201 201 201 191 191 189 198 197 203 196 187 189 191 188 191 193 188 184 196 193 189 190 196 197
268 281 281 263 277 263 252 241 299 285 257 235 241 246 268 228 262 265 241 199 204 198 195 182 191 198 205 199 212 197 185 189 191 191 196 196 196 200 198 196 193 189 192 199
306 289 249 246 241 249 268 299 289 278 252 245 247 208 254 252 246 266 278 199 207 196 200 197 196 197 198 205 219 219 188 188 191 192 197 199 200 199 200 199 197 192 191 194
317 259 235 198 229 225 179 188 229 234 233 245 241 211 233 255 246 246 257 246 195 188 192 193 192 185 185 202 198 207 190 188 191 195 198 201 205 206 203 201 196 193 190 194
341 321 319 196 201 204 182 176 233 196 200 233 244 231 242 245 258 263 266 276 192 182 189 193 197 201 200 190 204 194 193 191 192 196 197 203 205 200 200 202 198 197 193 194
310 304 304 339 207 191 157 186 202 298 235 159 217 229 248 286 328 343 306 258 179 188 183 195 199 184 187 195 206 196 193 192 192 195 197 201 199 201 203 202 200 197 193 195
308 290 313 304 289 222 185 176 158 197 195 223 289 304 31 9 345 336 327 299 179 187 194 194 191 197 189 191 199 195 190 193 193 194 197 199 200 204 206 199 196 195 193 196
221 265 297 300 185 69 151 122 71 262 208 162 87 248 11 5 351 338 329 306 214 181 192 193 184 195 195 192 200 197 197 192 193 194 195 198 199 204 203 199 196 195 195 193
235 271 279 261 290 310 250 183 176 125 301 57 125 314 24 3 348 359 332 317 211 191 194 198 185 182 184 189 195 192 207 190 193 194 195 198 200 201 199 199 199 196 197 196
305 303 310 162 38 16 21 333 195 164 99 52 76 292 9 4 7 7 343 326 202 192 176 177 173 178 189 192 196 194 209 219 200 196 196 197 201 199 200 201 199 198 199 201
331 285 303 19 296 232 53 36 22 122 85 69 38 331 7 8 9 8 353 23 60 127 173 170 173 178 186 189 197 199 199 202 202 196 198 197 200 201 203 204 203 201 201 205
42 269 253 221 78 70 51 50 49 48 35 43 0 332 354 2 6 359 4 20 32 39 85 168 173 180 185 185 184 196 207 206 198 194 198 203 202 204 206 207 205 204 202 208
332 305 8 121 110 66 51 28 35 40 25 5 2 357 346 350 3 14 9 11 21 22 25 99 173 175 189 199 208 191 192 201 202 200 201 202 205 205 207 209 207 204 206 208
286 311 346 50 340 348 38 23 18 49 26 353 14 333 329 359 4 21 6 11 13 10 6 49 42 223 214 208 197 194 206 201 199 201 202 206 208 208 208 209 208 208 209 210
302 329 15 4 346 51 330 8 1 50 24 6 357 348 333 320 29 22 15 12 5 9 18 40 53 57 210 214 200 198 202 201 199 209 206 209 211 210 208 208 209 211 212 212
10 325 36 73 55 111 19 350 335 342 24 360 348 343 345 346 260 19 8 6 13 11 21 25 11 10 157 223 213 203 195 205 202 204 208 207 208 208 210 209 211 214 214 214
21 42 76 24 69 24 325 334 329 297 17 350 354 2 350 13 41 3 358 11 28 32 29 28 55 197 122 242 219 206 201 194 201 211 216 209 210 213 221 215 214 216 218 219
353 2 39 32 84 72 344 343 356 55 318 325 343 348 8 23 15 5 15 26 30 35 37 45 52 67 48 170 212 214 212 212 201 200 210 209 210 214 217 220 218 220 220 222
26 44 13 22 62 27 346 5 43 337 352 352 358 2 16 22 22 26 27 24 32 36 44 50 54 57 58 102 126 161 190 196 200 209 208 207 212 215 222 221 222 222 224 226
61 49 50 38 70 325 16 32 38 31 15 19 18 17 21 25 24 27 27 28 33 34 41 44 51 55 84 42 33 39 134 195 207 204 202 198 210 223 224 224 222 219 222 225
23 34 49 73 30 26 29 43 38 38 30 26 25 24 25 24 27 28 29 30 36 39 36 40 42 46 51 53 44 38 65 280 199 217 206 193 219 215 222 219 220 218 222 223
11 14 18 62 39 35 40 36 30 36 35 33 33 28 27 25 27 30 35 29 34 36 42 41 40 41 43 44 46 40 38 56 62 139 211 215 213 217 214 216 218 217 221 233
14 360 66 96 18 50 45 47 43 43 39 39 34 31 34 33 32 32 32 33 33 34 35 38 40 40 40 39 43 47 42 46 48 44 44 232 208 211 214 217 218 222 226 235
Height
1471 1475 1472 1479 1480 1481 1483 1484 1480 1472 1469 1472 1467 1462 1454 1456 1453 1453 1453 1458 1461 1463 1468 1471 1478 1487 1500 1504 1508 1513 1514 1521 1525 1530 1533 1538 1543 1549 1554 1558 1561 1564 1566 1567
1472 1458 1467 1469 1472 1475 1477 1478 1470 1467 1467 1469 1464 1459 1452 1451 1445 1446 1448 1450 1456 1459 1462 1466 1470 1472 1490 1499 1503 1506 1510 1516 1521 1526 1532 1536 1540 1546 1552 1555 1558 1561 1563 1566
1472 1457 1459 1458 1462 1466 1465 1467 1465 1466 1463 1459 1461 1456 1448 1442 1440 1437 1440 1442 1446 1451 1453 1458 1465 1469 1481 1491 1492 1495 1503 1510 1517 1522 1529 1534 1540 1543 1548 1551 1555 1558 1561 1564
1460 1453 1453 1450 1451 1457 1458 1455 1456 1457 1459 1464 1453 1459 1442 1440 1434 1430 1433 1436 1439 1444 1449 1448 1454 1457 1466 1460 1480 1479 1493 1504 1513 1520 1524 1527 1530 1535 1541 1546 1552 1556 1558 1562
1456 1457 1454 1448 1452 1449 1448 1449 1455 1454 1450 1454 1447 1459 1435 1436 1433 1425 1423 1426 1432 1436 1444 1447 1449 1453 1451 1465 1477 1473 1485 1497 1508 1515 1519 1523 1528 1533 1539 1543 1548 1553 1555 1559
1454 1449 1445 1441 1443 1447 1450 1451 1449 1447 1446 1449 1437 1451 1442 1432 1427 1420 1417 1419 1421 1428 1436 1443 1446 1449 1453 1457 1465 1471 1480 1491 1503 1509 1514 1520 1524 1530 1535 1539 1543 1548 1552 1555
1448 1432 1425 1431 1442 1442 1448 1455 1458 1448 1443 1440 1431 1443 1430 1418 1416 1415 1413 1411 1412 1417 1426 1434 1439 1445 1451 1462 1468 1471 1477 1488 1495 1503 1510 1516 1522 1527 1531 1536 1538 1543 1547 1551
1465 1443 1425 1419 1427 1436 1440 1446 1451 1441 1445 1440 1429 1440 1421 1407 1408 1408 1407 1406 1406 1409 1416 1424 1428 1436 1444 1457 1465 1470 1477 1485 1488 1497 1505 1511 1519 1524 1528 1532 1535 1540 1544 1548
1464 1446 1436 1427 1430 1433 1436 1440 1442 1444 1428 1436 1429 1418 1406 1406 1408 1408 1401 1396 1399 1398 1410 1417 1422 1431 1440 1443 1452 1459 1473 1478 1484 1491 1499 1506 1514 1520 1524 1529 1534 1539 1543 1546
1463 1454 1428 1430 1427 1427 1424 1424 1435 1445 1441 1435 1424 1420 1424 1420 1417 1412 1403 1396 1389 1391 1399 1409 1416 1425 1435 1440 1447 1452 1460 1471 1480 1488 1495 1503 1510 1517 1522 1527 1531 1536 1541 1544
1468 1463 1439 1430 1421 1419 1421 1425 1430 1429 1426 1428 1431 1431 1431 1426 1422 1411 1405 1400 1391 1388 1394 1400 1410 1417 1424 1434 1440 1444 1458 1463 1475 1485 1491 1499 1506 1513 1519 1524 1528 1533 1538 1541
1466 1462 1451 1434 1421 1423 1422 1416 1428 1446 1441 1428 1433 1439 1433 1429 1424 1415 1402 1388 1380 1383 1385 1392 1403 1414 1422 1430 1440 1446 1453 1452 1470 1479 1487 1495 1502 1509 1515 1520 1525 1530 1536 1540
1464 1460 1450 1426 1425 1419 1423 1417 1414 1416 1420 1422 1441 1446 1434 1429 1419 1413 1402 1375 1376 1377 1389 1396 1402 1410 1418 1427 1435 1438 1442 1455 1465 1475 1482 1491 1498 1505 1510 1516 1521 1527 1532 1536
1464 1463 1459 1453 1449 1442 1437 1432 1420 1415 1426 1427 1445 1445 1443 1436 1428 1421 1407 1388 1387 1394 1393 1391 1400 1408 1416 1424 1430 1437 1443 1451 1461 1469 1478 1487 1494 1501 1507 1513 1518 1523 1528 1533
1465 1462 1458 1454 1453 1439 1455 1455 1451 1452 1448 1452 1460 1452 1449 1444 1436 1435 1423 1408 1401 1402 1404 1408 1410 1408 1415 1423 1430 1432 1441 1448 1454 1462 1473 1482 1489 1498 1504 1510 1514 1520 1524 1530
1466 1462 1456 1452 1439 1444 1457 1466 1459 1462 1471 1467 1466 1459 1460 1452 1448 1435 1430 1420 1415 1413 1412 1414 1416 1417 1422 1422 1423 1424 1428 1444 1453 1459 1469 1478 1483 1492 1498 1505 1510 1515 1520 1525
1464 1461 1458 1445 1450 1439 1460 1494 1491 1494 1493 1485 1475 1474 1463 1459 1455 1441 1436 1430 1423 1421 1420 1417 1417 1419 1420 1424 1424 1428 1435 1442 1447 1459 1467 1473 1480 1486 1493 1500 1506 1510 1515 1521
1465 1460 1460 1458 1456 1479 1500 1495 1494 1493 1494 1488 1481 1475 1470 1463 1455 1448 1438 1431 1434 1429 1420 1420 1423 1422 1422 1424 1430 1435 1437 1443 1448 1454 1461 1467 1475 1481 1488 1495 1501 1506 1511 1515
1466 1464 1467 1474 1480 1495 1495 1500 1500 1497 1497 1494 1489 1480 1466 1458 1455 1440 1440 1439 1435 1433 1426 1419 1417 1421 1420 1424 1429 1432 1435 1439 1447 1449 1453 1462 1471 1476 1482 1490 1495 1501 1506 1510
1471 1468 1478 1486 1506 1524 1519 1506 1493 1491 1496 1500 1492 1485 1479 1466 1449 1459 1452 1448 1439 1431 1428 1420 1418 1421 1418 1421 1422 1425 1430 1434 1438 1445 1451 1458 1466 1471 1476 1482 1490 1496 1502 1507
1494 1493 1494 1494 1508 1519 1517 1507 1493 1499 1519 1504 1496 1489 1477 1468 1473 1469 1460 1448 1443 1439 1435 1428 1424 1419 1419 1416 1421 1424 1428 1433 1435 1440 1448 1456 1462 1466 1473 1480 1487 1492 1499 1504
1515 1518 1517 1519 1523 1533 1527 1517 1513 1527 1520 1512 1503 1494 1489 1484 1477 1470 1462 1456 1447 1440 1436 1434 1429 1422 1423 1422 1419 1422 1424 1429 1434 1439 1445 1452 1457 1462 1470 1477 1482 1489 1496 1500
1525 1533 1529 1529 1540 1543 1539 1535 1532 1529 1522 1516 1511 1503 1493 1488 1481 1473 1471 1462 1455 1452 1446 1441 1435 1431 1427 1426 1428 1422 1425 1428 1432 1436 1441 1449 1453 1458 1465 1473 1479 1484 1489 1494
1534 1534 1537 1540 1546 1544 1541 1539 1534 1530 1525 1521 1516 1508 1500 1497 1494 1487 1474 1469 1463 1456 1452 1447 1443 1436 1434 1434 1431 1429 1427 1431 1426 1434 1439 1440 1447 1456 1461 1465 1470 1475 1481 1485
1548 1544 1547 1547 1548 1546 1544 1541 1539 1535 1530 1523 1518 1513 1508 1501 1494 1491 1489 1479 1471 1467 1459 1455 1447 1441 1438 1441 1441 1436 1437 1434 1433 1433 1440 1439 1444 1447 1448 1460 1462 1467 1473 1478
1554 1554 1556 1559 1553 1551 1548 1545 1543 1539 1533 1528 1523 1517 1512 1507 1500 1496 1491 1487 1480 1468 1465 1461 1458 1453 1452 1451 1446 1445 1441 1442 1440 1441 1438 1442 1441 1447 1451 1454 1458 1463 1470 1473